Погода в Радебойле

Германия     51°06′31″N   13°37′51″E
темп.,
°C
ветер,
м/с
пор.,
м/с
влажн.,
%
обл.,
%
осадки,
мм/ч
давл.,
гПа
погр.,
м
18 мая, ср
ср1823:00+13ююв228823 0.0 102322
02:00+12ююв2287100 0.0 102340
05:00+11ююв23887 0.0 102460
08:00+15ююв3672100 0.0 1025306
11:00+19ююв445336 0.0 10261054
14:00+21ююв44485 0.0 10251676
17:00+22ююв444930 0.0 10241575
20:00+18юв376748 0.0 1024286
19 мая, чт
чт1923:00+14ююв310735 0.0 1024271
02:00+13ююв37715 0.0 1024149
05:00+12ююв486272 0.0 1024155
08:00+15ююв485057 0.0 1024264
11:00+20ююв473366 0.0 1023554
14:00+23ю4535100 0.0 1022932
17:00+24ю4543100 0.0 1020765
20:00+20ю3662100 0.0 1020133
20 мая, пт
пт2023:00+18ю3557100 0.0 102094
02:00+17юз236699 0.0 102179
05:00+17ююз2280100 0.0 102153
08:00+20зюз37725 0.0 1022388
11:00+24з465870 0.0 10221151
14:00+26зсз465332 0.0 10201642
17:00+26сз3457100 0.4 10191212
20:00+22св2275100 1.1 101764
21 мая, сб
сб2123:00+19ююв3685100 0.3 1014140
02:00+19ю41582100 0.3 1011350
05:00+19зюз8168429 1.1 1011976
08:00+14з8147866 1.3 10161245
11:00+15з9156490 0.1 10181626
14:00+16з8146091 0.4 10181950
17:00+17з8146155 0.5 10181789
20:00+15зсз71464100 0.8 10191539
22 мая, вс
вс2223:00+12зсз4127721 0.0 1020821
02:00+10з512841 0.0 1020703
05:00+9з410895 0.0 1021530
08:00+11зсз58725 0.0 1021725
11:00+15зсз57550 0.0 10201166
14:00+18сз46451 0.0 10191448
17:00+18сз34435 0.0 10181511
20:00+15зсз1159100 0.0 101726